Tracking 29892 objects as of 21-Nov-2024
HD Live streaming from Space Station
objects crossing your sky now

COSMOS 2251 DEB

Track COSMOS 2251 DEB now!
10-day predictions


NORAD ID: 33844
Int'l Code: 1993-036CM
Perigee: 756.5 km
Apogee: 825.6 km
Inclination: 74.1 °
Period: 100.5 minutes
Semi major axis: 7162 km
RCS: 0.057 m2 (small)
Launch date: June 16, 1993
Source: Commonwealth of Independent States (former USSR) (CIS)
Launch site: PLESETSK MISSILE AND SPACE COMPLEX (PKMTR)

Note: This is SATELLITE DEBRIS
Your satellite tracking list
Your tracking list is empty




NASA's NSSDC Master Catalog

Two Line Element Set (TLE):
1 33844U 93036CM  24325.63302382  .00002212  00000-0  81744-3 0  9990
2 33844  74.0690  38.8108 0048207 160.3807 271.5859 14.32337242821801
Source of the keplerian elements: AFSPC